Flight Track Log - Related Links

Times and Time Zones

All times are in EDT time to prevent confusion due to time zone crossing. See the LOG6848 flight status page for this flight to view local times or setup timezone preferences in your user account.

Time Position Orientation Groundspeed Altitude Reporting Facility
EDT Latitude Longitude Course Direction KTS MPH feet Rate Location/Type
Wed 12:51:27 PM 55.4621 -5.6408 60° Northeast 1 1 2,100  Level FlightAware UK
Wed 12:51:45 PM 55.4658 -5.6298 60° Northeast 1 1 2,300 833 Climbing FlightAware UK
Wed 12:52:03 PM 55.4693 -5.6159 66° East 1 1 2,600 1,000 Climbing FlightAware UK
Wed 12:52:21 PM 55.4725 -5.6013 68° East 1 1 2,900 1,000 Climbing FlightAware UK
Wed 12:52:39 PM 55.4766 -5.5872 63° Northeast 1 1 3,200 1,000 Climbing FlightAware UK
Wed 12:52:57 PM 55.4812 -5.5756 55° Northeast 1 1 3,500 667 Climbing FlightAware UK
Wed 12:53:15 PM 55.4863 -5.5638 53° Northeast 1 1 3,600 333 Climbing FlightAware UK
Wed 12:53:33 PM 55.4913 -5.5523 52° Northeast 1 1 3,700 500 Climbing FlightAware UK
Wed 12:53:51 PM 55.4968 -5.5419 47° Northeast 1 1 3,900 667 Climbing FlightAware UK
Wed 12:54:09 PM 55.5023 -5.5324 44° Northeast 1 1 4,100 667 Climbing FlightAware UK
Wed 12:54:27 PM 55.5075 -5.5252 38° Northeast 1 1 4,300 667 Climbing FlightAware UK
Wed 12:54:45 PM 55.5130 -5.5181 36° Northeast 1 1 4,500 667 Climbing FlightAware UK
Wed 12:55:03 PM 55.5187 -5.5110 35° Northeast 1 1 4,700 667 Climbing FlightAware UK
Wed 12:55:21 PM 55.5251 -5.5035 34° Northeast 1 1 4,900 500 Climbing FlightAware UK
Wed 12:55:39 PM 55.5309 -5.4941 42° Northeast 1 1 5,000 125 Climbing FlightAware UK
Wed 12:56:09 PM 55.5433 -5.4761 39° Northeast 1 1 5,000 125 Level FlightAware UK
Wed 12:56:27 PM 55.5516 -5.4645 38° Northeast 1 1 5,100  Climbing FlightAware UK
Wed 12:56:45 PM 55.5591 -5.4509 46° Northeast 1 1 5,000 -167 Descending FlightAware UK
Wed 12:57:03 PM 55.5665 -5.4369 47° Northeast 1 1 5,000  Level FlightAware UK
Wed 12:57:21 PM 55.5741 -5.4229 46° Northeast 1 1 5,000  Level FlightAware UK
Wed 12:57:39 PM 55.5818 -5.4088 46° Northeast 1 1 5,000 -333 Level FlightAware UK
Wed 12:57:57 PM 55.5889 -5.3937 50° Northeast 1 1 4,800 -167 Descending FlightAware UK
Wed 12:58:15 PM 55.5967 -5.3796 46° Northeast 1 1 4,900 333 Climbing FlightAware UK
Wed 12:58:33 PM 55.6052 -5.3688 36° Northeast 1 1 5,000  Climbing FlightAware UK
Wed 12:58:51 PM 55.6134 -5.3566 40° Northeast 1 1 4,900 -167 Descending FlightAware UK
Wed 12:59:09 PM 55.6212 -5.3448 41° Northeast 1 1 4,900  Level FlightAware UK
Wed 12:59:27 PM 55.6291 -5.3334 39° Northeast 1 1 4,900  Level FlightAware UK
Wed 12:59:45 PM 55.6370 -5.3216 40° Northeast 1 1 4,900 -333 Level FlightAware UK
Wed 01:00:03 PM 55.6447 -5.3095 42° Northeast 1 1 4,700 167 Descending FlightAware UK
Wed 01:00:21 PM 55.6523 -5.2980 41° Northeast 1 1 5,000 333 Climbing FlightAware UK
Wed 01:00:39 PM 55.6588 -5.2868 44° Northeast 1 1 4,900 -167 Descending FlightAware UK
Wed 01:00:57 PM 55.6660 -5.2756 41° Northeast 1 1 4,900  Level FlightAware UK
Wed 01:01:15 PM 55.6719 -5.2599 56° Northeast 1 1 4,900  Level FlightAware UK
Wed 01:01:33 PM 55.6778 -5.2447 55° Northeast 1 1 4,900 -167 Level FlightAware UK
Wed 01:01:51 PM 55.6834 -5.2285 58° Northeast 1 1 4,800  Descending FlightAware UK
Wed 01:02:09 PM 55.6898 -5.2130 54° Northeast 1 1 4,900 167 Climbing FlightAware UK
Wed 01:02:27 PM 55.6961 -5.1980 53° Northeast 1 1 4,900 -167 Level FlightAware UK
Wed 01:02:45 PM 55.7020 -5.1825 56° Northeast 1 1 4,800  Descending FlightAware UK
Wed 01:03:03 PM 55.7076 -5.1669 57° Northeast 1 1 4,900 167 Climbing FlightAware UK
Wed 01:03:21 PM 55.7123 -5.1504 63° Northeast 1 1 4,900  Level FlightAware UK
Wed 01:03:39 PM 55.7175 -5.1338 61° Northeast 1 1 4,900 167 Level FlightAware UK
Wed 01:03:57 PM 55.7230 -5.1171 60° Northeast 1 1 5,000 167 Climbing FlightAware UK
Wed 01:04:15 PM 55.7287 -5.1004 59° Northeast 1 1 5,000  Level FlightAware UK
Wed 01:04:33 PM 55.7345 -5.0835 59° Northeast 1 1 5,000  Level FlightAware UK
Wed 01:04:51 PM 55.7408 -5.0666 57° Northeast 1 1 5,000  Level FlightAware UK
Wed 01:05:09 PM 55.7479 -5.0502 52° Northeast 1 1 5,000  Level FlightAware UK
Wed 01:05:33 PM 55.7581 -5.0289 50° Northeast 1 1 5,000  Level FlightAware UK
Wed 01:05:51 PM 55.7657 -5.0128 50° Northeast 1 1 5,000  Level FlightAware UK
Wed 01:06:15 PM 55.7752 -4.9904 53° Northeast 1 1 5,000 -286 Level FlightAware UK
Wed 01:06:33 PM 55.7821 -4.9725 56° Northeast 1 1 4,800 -833 Descending FlightAware UK
Wed 01:06:51 PM 55.7891 -4.9539 56° Northeast 1 1 4,500 -1,000 Descending FlightAware UK
Wed 01:07:09 PM 55.7965 -4.9356 54° Northeast 1 1 4,200 -833 Descending FlightAware UK
Wed 01:07:27 PM 55.8043 -4.9176 52° Northeast 1 1 4,000 -167 Descending FlightAware UK
Wed 01:07:45 PM 55.8120 -4.9001 52° Northeast 1 1 4,100 167 Climbing FlightAware UK
Wed 01:08:03 PM 55.8187 -4.8842 53° Northeast 1 1 4,100  Level FlightAware UK
Wed 01:08:21 PM 55.8255 -4.8684 53° Northeast 1 1 4,100 -500 Level FlightAware UK
Wed 01:08:39 PM 55.8330 -4.8535 48° Northeast 1 1 3,800 -667 Descending FlightAware UK
Wed 01:08:57 PM 55.8403 -4.8389 48° Northeast 1 1 3,700 -333 Descending FlightAware UK
Wed 01:09:15 PM 55.8479 -4.8241 48° Northeast 1 1 3,600 -429 Descending FlightAware UK
Wed 01:09:39 PM 55.8585 -4.8036 47° Northeast 1 1 3,400 -111 Descending FlightAware UK
Wed 01:10:09 PM 55.8718 -4.7776 48° Northeast 1 1 3,500 -125 Climbing FlightAware UK
Wed 01:10:27 PM 55.8792 -4.7624 49° Northeast 1 1 3,300 -167 Descending FlightAware UK
Wed 01:10:45 PM 55.8866 -4.7467 50° Northeast 1 1 3,400 167 Climbing FlightAware UK
Wed 01:11:03 PM 55.8936 -4.7306 52° Northeast 1 1 3,400  Level FlightAware UK
Wed 01:11:45 PM 55.9100 -4.6955 50° Northeast 1 1 3,400 -200 Level FlightAware UK
Wed 01:12:03 PM 55.9176 -4.6817 46° Northeast 1 1 3,200 -500 Descending FlightAware UK
Wed 01:12:21 PM 55.9260 -4.6673 44° Northeast 1 1 3,100 -167 Descending FlightAware UK
Wed 01:12:39 PM 55.9334 -4.6510 51° Northeast 1 1 3,100 -333 Level FlightAware UK
Wed 01:12:57 PM 55.9366 -4.6281 76° East 1 1 2,900 -667 Descending FlightAware UK
Wed 01:13:15 PM 55.9377 -4.6044 85° East 1 1 2,700 -500 Descending FlightAware UK
Wed 01:13:33 PM 55.9363 -4.5818 97° East 1 1 2,600 -667 Descending FlightAware UK
Wed 01:13:51 PM 55.9344 -4.5599 99° East 1 1 2,300 -667 Descending FlightAware UK
Wed 01:14:09 PM 55.9315 -4.5393 104° East 1 1 2,200 -333 Descending FlightAware UK
Wed 01:14:27 PM 55.9288 -4.5224 106° East 1 1 2,100 -500 Descending FlightAware UK
Wed 01:14:45 PM 55.9262 -4.5074 107° East 1 1 1,900 -833 Descending FlightAware UK
Wed 01:15:03 PM 55.9237 -4.4918 106° East 1 1 1,600 -833 Descending FlightAware UK
Wed 01:15:21 PM 55.9207 -4.4771 110° East 1 1 1,400 -500 Descending FlightAware UK
Wed 01:15:39 PM 55.9159 -4.4617 119° Southeast 1 1 1,300 -500 Descending FlightAware UK
Wed 01:15:57 PM 55.9114 -4.4467 118° Southeast 1 1 1,100 -500 Descending FlightAware UK
Wed 01:16:15 PM 55.9070 -4.4320 118° Southeast 1 1 1,000 -333 Descending FlightAware UK
Wed 01:16:33 PM 55.9024 -4.4190 123° Southeast 1 1 900 -500 Descending FlightAware UK
Wed 01:16:51 PM 55.8963 -4.4076 134° Southeast 1 1 700 -750 Descending FlightAware UK
Wed 01:17:21 PM 55.8835 -4.4110 189° South 1 1 300 -800 Descending FlightAware UK
Wed 01:19:00 PM 55.8719 -4.4331 227° Southwest  Level Estimated

Login

Don't have an account? Register now (free) for customized features, flight alerts, and more!